| time (UTC) | temp F | wind direction | speed MPH | gust MPH | rain 1hr in | rain 24hr in | rain mn in | humidity % | barometer mb |
| 20260507142006 | 52 | 131 | 0.0 | 2.0 | 0.00 | 0.00 | 0.00 | 71 | 1021.9 |
| 20260507141522 | 52 | 63 | 1.0 | 3.0 | 0.00 | 0.00 | 0.00 | 71 | 1021.9 |
| 20260507141007 | 52 | 91 | 0.0 | 3.0 | 0.00 | 0.00 | 0.00 | 71 | 1021.9 |
| 20260507140503 | 52 | 117 | 0.0 | 5.0 | 0.00 | 0.00 | 0.00 | 71 | 1021.8 |
| 20260507140009 | 52 | 81 | 2.0 | 5.0 | 0.00 | 0.00 | 0.00 | 71 | 1021.8 |
| 20260507135504 | 52 | 75 | 1.0 | 5.0 | 0.00 | 0.00 | 0.00 | 71 | 1021.7 |
| 20260507135011 | 52 | 95 | 0.0 | 3.0 | 0.00 | 0.00 | 0.00 | 72 | 1021.7 |
| 20260507134510 | 52 | 132 | 0.0 | 3.0 | 0.00 | 0.00 | 0.00 | 72 | 1021.7 |
| 20260507134003 | 52 | 107 | 2.0 | 3.0 | 0.00 | 0.00 | 0.00 | 72 | 1021.7 |
| 20260507133507 | 52 | 110 | 1.0 | 3.0 | 0.00 | 0.00 | 0.00 | 72 | 1021.6 |
| 20260507133014 | 52 | 110 | 1.0 | 3.0 | 0.00 | 0.00 | 0.00 | 72 | 1021.6 |
| 20260507132508 | 52 | 129 | 1.0 | 4.0 | 0.00 | 0.00 | 0.00 | 72 | 1021.6 |
| 20260507132009 | 52 | 77 | 2.0 | 4.0 | 0.00 | 0.00 | 0.00 | 72 | 1021.6 |
| 20260507131533 | 52 | 104 | 1.0 | 3.0 | 0.00 | 0.00 | 0.00 | 72 | 1021.7 |
| 20260507131011 | 52 | 82 | 0.0 | 4.0 | 0.00 | 0.00 | 0.00 | 72 | 1021.7 |
| 20260507130510 | 52 | 147 | 0.0 | 4.0 | 0.00 | 0.00 | 0.00 | 72 | 1021.6 |
| 20260507130022 | 52 | 84 | 1.0 | 3.0 | 0.00 | 0.00 | 0.00 | 72 | 1021.7 |
| 20260507125512 | 52 | 93 | 0.0 | 2.0 | 0.00 | 0.00 | 0.00 | 72 | 1021.7 |
| 20260507125005 | 52 | 105 | 1.0 | 2.0 | 0.00 | 0.00 | 0.00 | 71 | 1021.7 |
| 20260507124506 | 52 | 76 | 0.0 | 2.0 | 0.00 | 0.00 | 0.00 | 72 | 1021.7 |
| 20260507124005 | 52 | 88 | 1.0 | 2.0 | 0.00 | 0.00 | 0.00 | 72 | 1021.7 |
| 20260507123507 | 52 | 108 | 0.0 | 5.0 | 0.00 | 0.00 | 0.00 | 71 | 1021.7 |
| 20260507123013 | 52 | 101 | 1.0 | 5.0 | 0.00 | 0.00 | 0.00 | 71 | 1021.8 |
| 20260507122503 | 52 | 96 | 0.0 | 4.0 | 0.00 | 0.00 | 0.00 | 72 | 1021.8 |
| 20260507122009 | 52 | 68 | 1.0 | 4.0 | 0.00 | 0.00 | 0.00 | 72 | 1021.8 |
| 20260507121516 | 52 | 99 | 1.0 | 4.0 | 0.00 | 0.00 | 0.00 | 72 | 1021.8 |
| 20260507121008 | 52 | 107 | 1.0 | 4.0 | 0.00 | 0.00 | 0.00 | 72 | 1021.8 |
| 20260507120509 | 52 | 99 | 1.0 | 4.0 | 0.00 | 0.00 | 0.00 | 72 | 1021.9 |
| 20260507120028 | 52 | 84 | 1.0 | 2.0 | 0.00 | 0.00 | 0.00 | 72 | 1021.9 |
| 20260507115509 | 53 | 91 | 1.0 | 3.0 | 0.00 | 0.00 | 0.00 | 72 | 1022.0 |
| 20260507115006 | 53 | 95 | 1.0 | 4.0 | 0.00 | 0.00 | 0.00 | 72 | 1022.0 |
| 20260507114525 | 53 | 46 | 2.0 | 4.0 | 0.00 | 0.00 | 0.00 | 72 | 1022.0 |
| 20260507114010 | 53 | 44 | 0.0 | 4.0 | 0.00 | 0.00 | 0.00 | 72 | 1022.0 |
| 20260507113511 | 53 | 96 | 1.0 | 4.0 | 0.00 | 0.00 | 0.00 | 72 | 1022.0 |
| 20260507113056 | 53 | 48 | 2.0 | 6.0 | 0.00 | 0.00 | 0.00 | 72 | 1022.0 |
| 20260507112516 | 53 | 106 | 1.0 | 6.0 | 0.00 | 0.00 | 0.00 | 72 | 1022.0 |
| 20260507112011 | 53 | 69 | 1.0 | 4.0 | 0.00 | 0.00 | 0.00 | 72 | 1022.0 |
| 20260507111532 | 53 | 70 | 3.0 | 7.0 | 0.00 | 0.00 | 0.00 | 72 | 1022.0 |
| 20260507111011 | 53 | 67 | 1.0 | 7.0 | 0.00 | 0.00 | 0.00 | 73 | 1022.0 |
| 20260507110511 | 53 | 71 | 2.0 | 7.0 | 0.00 | 0.00 | 0.00 | 73 | 1022.0 |
| 20260507110016 | 53 | 34 | 2.0 | 7.0 | 0.00 | 0.00 | 0.00 | 72 | 1022.0 |
| 20260507105506 | 53 | 87 | 2.0 | 8.0 | 0.00 | 0.00 | 0.00 | 72 | 1022.1 |
| 20260507105006 | 53 | 26 | 3.0 | 8.0 | 0.00 | 0.00 | 0.00 | 72 | 1022.1 |
| 20260507104520 | 53 | 56 | 3.0 | 8.0 | 0.00 | 0.00 | 0.00 | 72 | 1022.1 |
| 20260507104011 | 53 | 95 | 1.0 | 7.0 | 0.00 | 0.00 | 0.00 | 73 | 1022.2 |
| 20260507103507 | 53 | 64 | 2.0 | 7.0 | 0.00 | 0.00 | 0.00 | 73 | 1022.2 |
| 20260507103026 | 53 | 98 | 3.0 | 7.0 | 0.00 | 0.00 | 0.00 | 73 | 1022.2 |
| 20260507102509 | 53 | 94 | 0.0 | 4.0 | 0.00 | 0.00 | 0.00 | 73 | 1022.2 |
| 20260507102007 | 53 | 77 | 1.0 | 5.0 | 0.00 | 0.00 | 0.00 | 73 | 1022.2 |
| 20260507101527 | 54 | 86 | 2.0 | 8.0 | 0.00 | 0.00 | 0.00 | 73 | 1022.3 |
| 20260507101012 | 54 | 104 | 1.0 | 8.0 | 0.00 | 0.00 | 0.00 | 73 | 1022.3 |
| 20260507100511 | 54 | 66 | 1.0 | 3.0 | 0.00 | 0.00 | 0.00 | 73 | 1022.3 |
| 20260507100038 | 54 | 58 | 0.0 | 3.0 | 0.00 | 0.00 | 0.00 | 74 | 1022.3 |
| 20260507095511 | 54 | 105 | 1.0 | 4.0 | 0.00 | 0.00 | 0.00 | 74 | 1022.4 |
| 20260507095009 | 54 | 89 | 1.0 | 5.0 | 0.00 | 0.00 | 0.00 | 73 | 1022.4 |
| 20260507094528 | 54 | 102 | 1.0 | 5.0 | 0.00 | 0.00 | 0.00 | 73 | 1022.4 |
| 20260507094008 | 54 | 86 | 2.0 | 5.0 | 0.00 | 0.00 | 0.00 | 73 | 1022.3 |
| 20260507093507 | 54 | 87 | 1.0 | 6.0 | 0.00 | 0.00 | 0.00 | 72 | 1022.4 |
| 20260507093027 | 54 | 101 | 2.0 | 6.0 | 0.00 | 0.00 | 0.00 | 72 | 1022.4 |
| 20260507092512 | 54 | 96 | 0.0 | 2.0 | 0.00 | 0.00 | 0.00 | 73 | 1022.5 |
| 20260507092008 | 54 | 70 | 0.0 | 3.0 | 0.00 | 0.00 | 0.00 | 72 | 1022.5 |
| 20260507091529 | 54 | 44 | 1.0 | 6.0 | 0.00 | 0.00 | 0.00 | 72 | 1022.5 |
| 20260507091010 | 54 | 72 | 2.0 | 6.0 | 0.00 | 0.00 | 0.00 | 72 | 1022.5 |
| 20260507090512 | 54 | 46 | 2.0 | 5.0 | 0.00 | 0.00 | 0.00 | 72 | 1022.6 |
| 20260507090024 | 54 | 69 | 3.0 | 5.0 | 0.00 | 0.00 | 0.00 | 72 | 1022.6 |
| 20260507085504 | 55 | 46 | 1.0 | 5.0 | 0.00 | 0.00 | 0.00 | 72 | 1022.5 |
| 20260507085005 | 54 | 57 | 1.0 | 4.0 | 0.00 | 0.00 | 0.00 | 72 | 1022.6 |
| 20260507084518 | 54 | 75 | 2.0 | 4.0 | 0.00 | 0.00 | 0.00 | 72 | 1022.6 |
| 20260507084004 | 55 | 23 | 1.0 | 7.0 | 0.00 | 0.00 | 0.00 | 73 | 1022.5 |
| 20260507083506 | 54 | 44 | 0.0 | 7.0 | 0.00 | 0.00 | 0.00 | 73 | 1022.5 |
| 20260507083012 | 55 | 57 | 1.0 | 4.0 | 0.00 | 0.00 | 0.00 | 73 | 1022.6 |
| 20260507082504 | 55 | 99 | 1.0 | 3.0 | 0.00 | 0.00 | 0.00 | 73 | 1022.6 |
| 20260507082004 | 55 | 77 | 2.0 | 4.0 | 0.00 | 0.00 | 0.00 | 73 | 1022.6 |
| 20260507081504 | 55 | 64 | 1.0 | 5.0 | 0.00 | 0.00 | 0.00 | 73 | 1022.6 |
| 20260507081007 | 55 | 6 | 2.0 | 5.0 | 0.00 | 0.00 | 0.00 | 74 | 1022.6 |
| 20260507080505 | 55 | 75 | 2.0 | 5.0 | 0.00 | 0.00 | 0.00 | 74 | 1022.5 |
| 20260507080007 | 55 | 4 | 2.0 | 6.0 | 0.00 | 0.00 | 0.00 | 74 | 1022.5 |
| 20260507075505 | 55 | 70 | 3.0 | 6.0 | 0.00 | 0.00 | 0.00 | 74 | 1022.6 |
| 20260507075008 | 55 | 70 | 3.0 | 5.0 | 0.00 | 0.00 | 0.00 | 74 | 1022.6 |
| 20260507074506 | 55 | 44 | 2.0 | 4.0 | 0.00 | 0.00 | 0.00 | 74 | 1022.6 |
| 20260507074005 | 55 | 65 | 2.0 | 4.0 | 0.00 | 0.00 | 0.00 | 74 | 1022.6 |
| 20260507073505 | 55 | 55 | 1.0 | 4.0 | 0.00 | 0.00 | 0.00 | 74 | 1022.6 |
| 20260507073010 | 55 | 44 | 2.0 | 4.0 | 0.00 | 0.00 | 0.00 | 74 | 1022.6 |
| 20260507072504 | 55 | 75 | 0.0 | 5.0 | 0.00 | 0.00 | 0.00 | 74 | 1022.5 |
| 20260507072007 | 55 | 48 | 1.0 | 6.0 | 0.00 | 0.00 | 0.00 | 74 | 1022.5 |
| 20260507071516 | 55 | 39 | 3.0 | 6.0 | 0.00 | 0.00 | 0.00 | 74 | 1022.4 |
| 20260507071004 | 55 | 32 | 1.0 | 4.0 | 0.00 | 0.00 | 0.00 | 74 | 1022.4 |
| 20260507070504 | 55 | 73 | 2.0 | 5.0 | 0.00 | 0.00 | 0.00 | 74 | 1022.4 |
| 20260507070016 | 55 | 115 | 1.0 | 5.0 | 0.00 | 0.00 | 0.00 | 74 | 1022.4 |
| 20260507065503 | 55 | 52 | 1.0 | 4.0 | 0.00 | 0.00 | 0.00 | 75 | 1022.4 |
| 20260507065003 | 55 | 49 | 2.0 | 5.0 | 0.00 | 0.00 | 0.00 | 75 | 1022.4 |
| 20260507064507 | 55 | 66 | 2.0 | 6.0 | 0.00 | 0.00 | 0.00 | 75 | 1022.5 |
| 20260507064003 | 55 | 47 | 2.0 | 6.0 | 0.00 | 0.00 | 0.00 | 75 | 1022.5 |
| 20260507063503 | 55 | 126 | 2.0 | 7.0 | 0.00 | 0.00 | 0.00 | 75 | 1022.5 |
| 20260507063016 | 55 | 56 | 3.0 | 9.0 | 0.00 | 0.00 | 0.00 | 74 | 1022.5 |
| 20260507062507 | 55 | 50 | 3.0 | 9.0 | 0.00 | 0.00 | 0.00 | 74 | 1022.5 |
| 20260507062007 | 55 | 68 | 2.0 | 7.0 | 0.00 | 0.00 | 0.00 | 74 | 1022.6 |
| 20260507061514 | 55 | 45 | 3.0 | 7.0 | 0.00 | 0.00 | 0.00 | 74 | 1022.6 |
| 20260507061012 | 55 | 106 | 3.0 | 6.0 | 0.00 | 0.00 | 0.00 | 74 | 1022.6 |
| 20260507060506 | 55 | 77 | 0.0 | 6.0 | 0.00 | 0.00 | 0.00 | 74 | 1022.6 |
| 20260507060013 | 56 | 86 | 3.0 | 6.0 | 0.00 | 0.00 | 0.00 | 74 | 1022.5 |
| 20260507055508 | 56 | 52 | 2.0 | 8.0 | 0.00 | 0.00 | 0.00 | 74 | 1022.5 |
| 20260507055004 | 56 | 48 | 2.0 | 8.0 | 0.00 | 0.00 | 0.00 | 74 | 1022.5 |
| 20260507054504 | 56 | 99 | 3.0 | 8.0 | 0.00 | 0.00 | 0.00 | 74 | 1022.5 |
| 20260507054004 | 56 | 82 | 2.0 | 10.0 | 0.00 | 0.00 | 0.00 | 74 | 1022.5 |
| 20260507053504 | 56 | 46 | 2.0 | 10.0 | 0.00 | 0.00 | 0.00 | 74 | 1022.5 |
| 20260507053010 | 56 | 93 | 3.0 | 8.0 | 0.00 | 0.00 | 0.00 | 74 | 1022.5 |
| 20260507052504 | 56 | 66 | 4.0 | 13.0 | 0.00 | 0.00 | 0.00 | 74 | 1022.4 |
| 20260507052007 | 56 | 106 | 4.0 | 13.0 | 0.00 | 0.00 | 0.00 | 73 | 1022.4 |
| 20260507051514 | 56 | 86 | 2.0 | 11.0 | 0.00 | 0.00 | 0.00 | 73 | 1022.4 |
| 20260507051011 | 56 | 106 | 4.0 | 11.0 | 0.00 | 0.00 | 0.00 | 73 | 1022.4 |
| 20260507050511 | 57 | 81 | 3.0 | 12.0 | 0.00 | 0.00 | 0.00 | 73 | 1022.5 |
| 20260507050035 | 57 | 98 | 3.0 | 12.0 | 0.00 | 0.00 | 0.00 | 73 | 1022.4 |
| 20260507045508 | 57 | 110 | 5.0 | 11.0 | 0.00 | 0.00 | 0.00 | 72 | 1022.4 |
| 20260507045007 | 57 | 99 | 3.0 | 12.0 | 0.00 | 0.00 | 0.00 | 72 | 1022.4 |
| 20260507044522 | 57 | 179 | 4.0 | 12.0 | 0.00 | 0.00 | 0.00 | 72 | 1022.5 |
| 20260507044006 | 57 | 74 | 4.0 | 9.0 | 0.00 | 0.00 | 0.00 | 72 | 1022.5 |
| 20260507043506 | 57 | 77 | 2.0 | 11.0 | 0.00 | 0.00 | 0.00 | 72 | 1022.3 |
| 20260507043006 | 57 | 89 | 4.0 | 13.0 | 0.00 | 0.00 | 0.00 | 72 | 1022.3 |
| 20260507042503 | 57 | 65 | 5.0 | 13.0 | 0.00 | 0.00 | 0.00 | 71 | 1022.2 |
| 20260507042003 | 58 | 73 | 3.0 | 7.0 | 0.00 | 0.00 | 0.00 | 71 | 1022.2 |
| 20260507041512 | 58 | 94 | 2.0 | 7.0 | 0.00 | 0.00 | 0.00 | 71 | 1022.2 |
| 20260507041007 | 58 | 73 | 2.0 | 8.0 | 0.00 | 0.00 | 0.00 | 71 | 1022.2 |
| 20260507040507 | 58 | 103 | 3.0 | 10.0 | 0.00 | 0.00 | 0.00 | 71 | 1022.2 |
| 20260507040018 | 58 | 93 | 4.0 | 11.0 | 0.00 | 0.00 | 0.00 | 71 | 1022.1 |
| 20260507035508 | 58 | 82 | 4.0 | 11.0 | 0.00 | 0.00 | 0.00 | 71 | 1021.9 |
| 20260507035008 | 59 | 82 | 2.0 | 11.0 | 0.00 | 0.00 | 0.00 | 71 | 1021.9 |
| 20260507034519 | 59 | 84 | 4.0 | 9.0 | 0.00 | 0.00 | 0.00 | 71 | 1021.8 |
| 20260507034013 | 59 | 47 | 3.0 | 9.0 | 0.00 | 0.00 | 0.00 | 71 | 1021.7 |
| 20260507033507 | 59 | 72 | 4.0 | 12.0 | 0.00 | 0.00 | 0.00 | 71 | 1021.7 |
| 20260507033028 | 59 | 20 | 6.0 | 12.0 | 0.00 | 0.00 | 0.00 | 70 | 1021.6 |
| 20260507032507 | 59 | 59 | 3.0 | 9.0 | 0.00 | 0.00 | 0.00 | 71 | 1021.5 |
| 20260507032010 | 60 | 103 | 4.0 | 9.0 | 0.00 | 0.00 | 0.00 | 70 | 1021.4 |
| 20260507031528 | 60 | 120 | 3.0 | 7.0 | 0.00 | 0.00 | 0.00 | 70 | 1021.4 |
| 20260507031004 | 60 | 67 | 3.0 | 7.0 | 0.00 | 0.00 | 0.00 | 70 | 1021.3 |
| 20260507030507 | 60 | 118 | 3.0 | 8.0 | 0.00 | 0.00 | 0.00 | 70 | 1021.3 |
| 20260507030014 | 60 | 96 | 3.0 | 8.0 | 0.00 | 0.00 | 0.00 | 70 | 1021.2 |
| 20260507025508 | 60 | 101 | 5.0 | 10.0 | 0.00 | 0.00 | 0.00 | 70 | 1021.1 |
| 20260507025012 | 61 | 96 | 4.0 | 10.0 | 0.00 | 0.00 | 0.00 | 69 | 1021.1 |
| 20260507024518 | 61 | 44 | 2.0 | 7.0 | 0.00 | 0.00 | 0.00 | 69 | 1021.0 |
| 20260507024007 | 61 | 106 | 1.0 | 9.0 | 0.00 | 0.00 | 0.00 | 69 | 1020.9 |
| 20260507023509 | 61 | 91 | 3.0 | 9.0 | 0.00 | 0.00 | 0.00 | 69 | 1021.0 |
| 20260507023020 | 62 | 72 | 3.0 | 8.0 | 0.00 | 0.00 | 0.00 | 69 | 1020.9 |
| 20260507022510 | 62 | 45 | 2.0 | 8.0 | 0.00 | 0.00 | 0.00 | 69 | 1020.9 |
| 20260507022010 | 62 | 94 | 4.0 | 10.0 | 0.00 | 0.00 | 0.00 | 68 | 1020.9 |
| 20260507021533 | 62 | 56 | 4.0 | 10.0 | 0.00 | 0.00 | 0.00 | 68 | 1020.9 |
| 20260507021007 | 63 | 76 | 4.0 | 12.0 | 0.00 | 0.00 | 0.00 | 67 | 1020.9 |
| 20260507020509 | 63 | 22 | 5.0 | 12.0 | 0.00 | 0.00 | 0.00 | 66 | 1020.9 |
| 20260507020026 | 63 | 99 | 3.0 | 10.0 | 0.00 | 0.00 | 0.00 | 66 | 1020.9 |
| 20260507015507 | 64 | 75 | 3.0 | 10.0 | 0.00 | 0.00 | 0.00 | 66 | 1020.9 |
| 20260507015005 | 64 | 32 | 4.0 | 10.0 | 0.00 | 0.00 | 0.00 | 66 | 1020.9 |
| 20260507014520 | 64 | 72 | 5.0 | 10.0 | 0.00 | 0.00 | 0.00 | 66 | 1021.0 |
| 20260507014013 | 64 | 61 | 4.0 | 11.0 | 0.00 | 0.00 | 0.00 | 66 | 1021.0 |
| 20260507013505 | 64 | 48 | 6.0 | 11.0 | 0.00 | 0.00 | 0.00 | 65 | 1021.0 |
| 20260507013019 | 65 | 77 | 3.0 | 9.0 | 0.00 | 0.00 | 0.00 | 65 | 1020.9 |
| 20260507012509 | 65 | 58 | 4.0 | 9.0 | 0.00 | 0.00 | 0.00 | 66 | 1020.8 |
| 20260507012010 | 65 | 42 | 4.0 | 11.0 | 0.00 | 0.00 | 0.00 | 65 | 1020.9 |
| 20260507011530 | 65 | 75 | 6.0 | 11.0 | 0.00 | 0.00 | 0.00 | 65 | 1020.9 |
| 20260507011007 | 65 | 80 | 5.0 | 10.0 | 0.00 | 0.00 | 0.00 | 64 | 1020.9 |
| 20260507010513 | 66 | 106 | 5.0 | 11.0 | 0.00 | 0.00 | 0.00 | 64 | 1020.9 |
| 20260507010037 | 66 | 76 | 5.0 | 11.0 | 0.00 | 0.00 | 0.00 | 64 | 1020.9 |
| 20260507005507 | 66 | 75 | 4.0 | 10.0 | 0.00 | 0.00 | 0.00 | 64 | 1020.8 |
| 20260507005019 | 66 | 54 | 6.0 | 10.0 | 0.00 | 0.00 | 0.00 | 63 | 1020.8 |
| 20260507004524 | 67 | 53 | 4.0 | 12.0 | 0.00 | 0.00 | 0.00 | 64 | 1020.8 |
| 20260507004011 | 67 | 97 | 4.0 | 12.0 | 0.00 | 0.00 | 0.00 | 64 | 1020.7 |
| 20260507003511 | 68 | 56 | 4.0 | 9.0 | 0.00 | 0.00 | 0.00 | 63 | 1020.7 |
| 20260507003025 | 68 | 51 | 4.0 | 10.0 | 0.00 | 0.00 | 0.00 | 64 | 1020.7 |
| 20260507002509 | 68 | 58 | 3.0 | 10.0 | 0.00 | 0.00 | 0.00 | 63 | 1020.7 |
| 20260507002009 | 68 | 96 | 3.0 | 9.0 | 0.00 | 0.00 | 0.00 | 63 | 1020.6 |
| 20260507001520 | 69 | 31 | 2.0 | 12.0 | 0.00 | 0.00 | 0.00 | 62 | 1020.7 |
| 20260507001010 | 69 | 47 | 6.0 | 12.0 | 0.00 | 0.00 | 0.00 | 62 | 1020.7 |
| 20260507000517 | 69 | 58 | 3.0 | 8.0 | 0.00 | 0.00 | 0.00 | 61 | 1020.7 |
| 20260507000024 | 69 | 86 | 4.0 | 8.0 | 0.00 | 0.00 | 0.00 | 60 | 1020.7 |
| 20260506235503 | 69 | 29 | 2.0 | 8.0 | 0.00 | 0.00 | 0.00 | 60 | 1020.6 |
| 20260506235007 | 69 | 354 | 2.0 | 8.0 | 0.00 | 0.00 | 0.00 | 60 | 1020.6 |
| 20260506234507 | 70 | 56 | 1.0 | 5.0 | 0.00 | 0.00 | 0.00 | 59 | 1020.6 |
| 20260506234005 | 71 | 89 | 1.0 | 3.0 | 0.00 | 0.00 | 0.00 | 58 | 1020.6 |
| 20260506233507 | 72 | 90 | 1.0 | 3.0 | 0.00 | 0.00 | 0.00 | 57 | 1020.6 |
| 20260506233014 | 72 | 6 | 1.0 | 3.0 | 0.00 | 0.00 | 0.00 | 57 | 1020.6 |
| 20260506232505 | 71 | 22 | 1.0 | 4.0 | 0.00 | 0.00 | 0.00 | 58 | 1020.7 |
| 20260506232008 | 70 | 153 | 1.0 | 4.0 | 0.00 | 0.00 | 0.00 | 60 | 1020.7 |
| 20260506231522 | 71 | 94 | 2.0 | 4.0 | 0.00 | 0.00 | 0.00 | 58 | 1020.7 |
| 20260506231007 | 71 | 77 | 1.0 | 4.0 | 0.00 | 0.00 | 0.00 | 59 | 1020.8 |
| 20260506230507 | 70 | 222 | 2.0 | 4.0 | 0.00 | 0.00 | 0.00 | 59 | 1020.8 |
| 20260506230026 | 70 | 119 | 2.0 | 6.0 | 0.00 | 0.00 | 0.00 | 60 | 1020.8 |
| 20260506225515 | 69 | 91 | 2.0 | 6.0 | 0.00 | 0.00 | 0.00 | 61 | 1020.9 |
| 20260506225008 | 69 | 82 | 4.0 | 6.0 | 0.00 | 0.00 | 0.00 | 61 | 1020.9 |
| 20260506224506 | 69 | 323 | 2.0 | 5.0 | 0.00 | 0.00 | 0.00 | 60 | 1021.0 |
| 20260506224002 | 68 | 319 | 1.0 | 4.0 | 0.00 | 0.00 | 0.00 | 62 | 1021.1 |
| 20260506223503 | 67 | 223 | 1.0 | 4.0 | 0.00 | 0.00 | 0.00 | 63 | 1021.2 |
| 20260506223015 | 67 | 8 | 1.0 | 4.0 | 0.00 | 0.00 | 0.00 | 62 | 1021.3 |
| 20260506222504 | 68 | 300 | 0.0 | 3.0 | 0.00 | 0.00 | 0.00 | 62 | 1021.3 |
| 20260506222013 | 67 | 120 | 1.0 | 3.0 | 0.00 | 0.00 | 0.00 | 62 | 1021.3 |
| 20260506221516 | 68 | 93 | 2.0 | 3.0 | 0.00 | 0.00 | 0.00 | 62 | 1021.4 |
| 20260506221012 | 68 | 86 | 1.0 | 3.0 | 0.00 | 0.00 | 0.00 | 63 | 1021.4 |
| 20260506220505 | 68 | 232 | 0.0 | 3.0 | 0.00 | 0.00 | 0.00 | 64 | 1021.5 |
| 20260506220028 | 67 | 122 | 1.0 | 4.0 | 0.00 | 0.00 | 0.00 | 64 | 1021.4 |
| 20260506215506 | 67 | 207 | 1.0 | 4.0 | 0.00 | 0.00 | 0.00 | 64 | 1021.4 |
| 20260506215012 | 66 | 264 | 1.0 | 5.0 | 0.00 | 0.00 | 0.00 | 66 | 1021.3 |
| 20260506214525 | 67 | 250 | 2.0 | 5.0 | 0.00 | 0.00 | 0.00 | 66 | 1021.3 |
| 20260506214008 | 66 | 309 | 2.0 | 4.0 | 0.00 | 0.00 | 0.00 | 65 | 1021.3 |
| 20260506213510 | 66 | 83 | 1.0 | 5.0 | 0.00 | 0.00 | 0.00 | 66 | 1021.4 |
| 20260506213008 | 66 | 141 | 3.0 | 5.0 | 0.00 | 0.00 | 0.00 | 66 | 1021.5 |
| 20260506212503 | 66 | 103 | 2.0 | 4.0 | 0.00 | 0.00 | 0.00 | 67 | 1021.6 |
| 20260506212006 | 65 | 89 | 1.0 | 2.0 | 0.00 | 0.00 | 0.00 | 68 | 1021.6 |
| 20260506211511 | 65 | 319 | 1.0 | 4.0 | 0.00 | 0.00 | 0.00 | 68 | 1021.7 |
| 20260506211006 | 65 | 105 | 1.0 | 5.0 | 0.00 | 0.00 | 0.00 | 68 | 1021.8 |
| 20260506210509 | 65 | 65 | 1.0 | 5.0 | 0.00 | 0.00 | 0.00 | 68 | 1021.8 |
| 20260506210018 | 65 | 94 | 2.0 | 5.0 | 0.00 | 0.00 | 0.00 | 68 | 1021.8 |
| 20260506205508 | 66 | 128 | 1.0 | 3.0 | 0.00 | 0.00 | 0.00 | 67 | 1021.8 |
| 20260506205008 | 65 | 101 | 0.0 | 4.0 | 0.00 | 0.00 | 0.00 | 66 | 1021.8 |
| 20260506204528 | 65 | 257 | 2.0 | 4.0 | 0.00 | 0.00 | 0.00 | 67 | 1021.8 |
| 20260506204010 | 65 | 157 | 0.0 | 3.0 | 0.00 | 0.00 | 0.00 | 67 | 1021.8 |
| 20260506203518 | 65 | 220 | 0.0 | 7.0 | 0.00 | 0.00 | 0.00 | 67 | 1021.8 |
| 20260506203029 | 65 | 297 | 1.0 | 7.0 | 0.00 | 0.00 | 0.00 | 68 | 1021.7 |
| 20260506202507 | 65 | 228 | 1.0 | 4.0 | 0.00 | 0.00 | 0.00 | 68 | 1021.7 |
| 20260506202012 | 65 | 54 | 1.0 | 4.0 | 0.00 | 0.00 | 0.00 | 68 | 1021.7 |
| 20260506201532 | 65 | 211 | 0.0 | 4.0 | 0.00 | 0.00 | 0.00 | 69 | 1021.8 |
| 20260506201008 | 64 | 293 | 0.0 | 4.0 | 0.00 | 0.00 | 0.00 | 69 | 1021.8 |
| 20260506200508 | 64 | 262 | 0.0 | 4.0 | 0.00 | 0.00 | 0.00 | 69 | 1021.8 |
| 20260506200013 | 63 | 226 | 0.0 | 4.0 | 0.00 | 0.00 | 0.00 | 70 | 1021.9 |
| 20260506195507 | 63 | 310 | 1.0 | 4.0 | 0.00 | 0.00 | 0.00 | 70 | 1022.1 |
| 20260506195010 | 62 | 311 | 1.0 | 3.0 | 0.00 | 0.00 | 0.00 | 72 | 1022.2 |
| 20260506194518 | 62 | 290 | 0.0 | 4.0 | 0.00 | 0.00 | 0.00 | 72 | 1022.2 |
| 20260506194009 | 62 | 25 | 1.0 | 4.0 | 0.00 | 0.00 | 0.00 | 72 | 1022.2 |
| 20260506193509 | 62 | 340 | 0.0 | 4.0 | 0.00 | 0.00 | 0.00 | 72 | 1022.3 |
| 20260506193023 | 62 | 3 | 2.0 | 4.0 | 0.00 | 0.00 | 0.00 | 72 | 1022.4 |
| 20260506192509 | 62 | 294 | 1.0 | 4.0 | 0.00 | 0.00 | 0.00 | 72 | 1022.3 |
| 20260506192011 | 62 | 309 | 1.0 | 4.0 | 0.00 | 0.00 | 0.00 | 73 | 1022.1 |
| 20260506191527 | 62 | 288 | 0.0 | 4.0 | 0.00 | 0.00 | 0.00 | 73 | 1022.1 |
| 20260506191007 | 62 | 313 | 1.0 | 4.0 | 0.00 | 0.00 | 0.00 | 73 | 1022.1 |
| 20260506190509 | 62 | 300 | 1.0 | 3.0 | 0.00 | 0.00 | 0.00 | 73 | 1022.2 |
| 20260506190028 | 61 | 269 | 0.0 | 3.0 | 0.00 | 0.00 | 0.00 | 74 | 1022.2 |
| 20260506185509 | 61 | 321 | 1.0 | 3.0 | 0.00 | 0.00 | 0.00 | 73 | 1022.2 |
| 20260506185005 | 61 | 97 | 2.0 | 3.0 | 0.00 | 0.00 | 0.00 | 73 | 1022.0 |
| 20260506184516 | 61 | 91 | 1.0 | 3.0 | 0.00 | 0.00 | 0.00 | 75 | 1022.0 |
| 20260506184008 | 61 | 298 | 1.0 | 3.0 | 0.00 | 0.00 | 0.00 | 75 | 1022.1 |
| 20260506183508 | 61 | 340 | 2.0 | 3.0 | 0.00 | 0.00 | 0.00 | 75 | 1022.0 |
| 20260506183018 | 61 | 39 | 1.0 | 3.0 | 0.00 | 0.00 | 0.00 | 74 | 1022.1 |
| 20260506182508 | 60 | 245 | 0.0 | 0.0 | 0.00 | 0.00 | 0.00 | 76 | 1022.2 |
| 20260506182010 | 60 | 49 | 0.0 | 4.0 | 0.00 | 0.00 | 0.00 | 76 | 1022.2 |
| 20260506181526 | 60 | 341 | 1.0 | 6.0 | 0.00 | 0.00 | 0.00 | 77 | 1022.1 |
| 20260506181008 | 60 | 359 | 2.0 | 6.0 | 0.00 | 0.00 | 0.00 | 77 | 1022.1 |
| 20260506180510 | 59 | 34 | 1.0 | 4.0 | 0.00 | 0.00 | 0.00 | 77 | 1022.2 |
| 20260506180028 | 60 | 359 | 1.0 | 4.0 | 0.00 | 0.00 | 0.00 | 76 | 1022.2 |
| 20260506175509 | 59 | 311 | 0.0 | 0.0 | 0.00 | 0.00 | 0.00 | 76 | 1022.2 |
| 20260506175010 | 59 | 67 | 0.0 | 0.0 | 0.00 | 0.00 | 0.00 | 77 | 1022.1 |
| 20260506174528 | 59 | 336 | 0.0 | 0.0 | 0.00 | 0.00 | 0.00 | 76 | 1022.2 |
| 20260506174013 | 59 | 349 | 0.0 | 0.0 | 0.00 | 0.00 | 0.00 | 76 | 1022.1 |
| 20260506173510 | 59 | 222 | 0.0 | 0.0 | 0.00 | 0.00 | 0.00 | 77 | 1022.0 |
| 20260506173018 | 59 | 235 | 0.0 | 0.0 | 0.00 | 0.00 | 0.00 | 77 | 1021.9 |
| 20260506172506 | 59 | 229 | 0.0 | 2.0 | 0.00 | 0.00 | 0.00 | 77 | 1021.9 |
| 20260506172008 | 59 | 242 | 0.0 | 3.0 | 0.00 | 0.00 | 0.00 | 77 | 1021.8 |
| 20260506171534 | 59 | 27 | 1.0 | 3.0 | 0.00 | 0.00 | 0.00 | 77 | 1021.7 |
| 20260506171010 | 59 | 259 | 0.0 | 3.0 | 0.00 | 0.00 | 0.00 | 77 | 1021.8 |
| 20260506170510 | 59 | 328 | 2.0 | 5.0 | 0.00 | 0.00 | 0.00 | 76 | 1021.9 |
| 20260506170025 | 59 | 308 | 2.0 | 5.0 | 0.00 | 0.00 | 0.00 | 77 | 1021.9 |
| 20260506165508 | 58 | 30 | 0.0 | 3.0 | 0.00 | 0.00 | 0.00 | 77 | 1021.9 |
| 20260506165010 | 58 | 345 | 0.0 | 4.0 | 0.00 | 0.00 | 0.00 | 77 | 1021.8 |
| 20260506164526 | 58 | 34 | 2.0 | 4.0 | 0.00 | 0.00 | 0.00 | 77 | 1021.7 |
| 20260506164013 | 59 | 60 | 0.0 | 4.0 | 0.00 | 0.00 | 0.00 | 77 | 1021.7 |
| 20260506163513 | 59 | 57 | 2.0 | 4.0 | 0.00 | 0.00 | 0.00 | 77 | 1021.9 |
| 20260506163030 | 58 | 103 | 0.0 | 4.0 | 0.00 | 0.00 | 0.00 | 78 | 1021.7 |
| 20260506162508 | 58 | 59 | 3.0 | 4.0 | 0.00 | 0.00 | 0.00 | 77 | 1021.7 |
| 20260506162012 | 58 | 56 | 2.0 | 4.0 | 0.00 | 0.00 | 0.00 | 77 | 1021.6 |
| 20260506161537 | 58 | 82 | 0.0 | 3.0 | 0.00 | 0.00 | 0.00 | 78 | 1021.6 |
| 20260506161007 | 58 | 79 | 1.0 | 3.0 | 0.00 | 0.00 | 0.00 | 78 | 1021.7 |
| 20260506160513 | 57 | 125 | 0.0 | 4.0 | 0.00 | 0.00 | 0.00 | 78 | 1021.5 |
| 20260506160034 | 57 | 124 | 0.0 | 4.0 | 0.00 | 0.00 | 0.00 | 78 | 1021.4 |
| 20260506155510 | 57 | 72 | 0.0 | 5.0 | 0.00 | 0.00 | 0.00 | 78 | 1021.4 |
| 20260506155011 | 57 | 258 | 1.0 | 5.0 | 0.00 | 0.00 | 0.00 | 79 | 1021.1 |
| 20260506154530 | 56 | 302 | 0.0 | 3.0 | 0.00 | 0.00 | 0.00 | 80 | 1021.1 |
| 20260506154012 | 56 | 250 | 0.0 | 0.0 | 0.00 | 0.00 | 0.00 | 80 | 1021.1 |
| 20260506153514 | 56 | 59 | 0.0 | 3.0 | 0.00 | 0.00 | 0.00 | 80 | 1021.7 |
| 20260506153024 | 56 | 96 | 0.0 | 3.0 | 0.00 | 0.00 | 0.00 | 80 | 1021.9 |
| 20260506152508 | 56 | 49 | 1.0 | 5.0 | 0.00 | 0.00 | 0.00 | 80 | 1021.9 |
| 20260506152015 | 56 | 54 | 1.0 | 5.0 | 0.00 | 0.00 | 0.00 | 80 | 1022.0 |
| 20260506151534 | 56 | 103 | 2.0 | 6.0 | 0.00 | 0.00 | 0.00 | 80 | 1022.0 |
| 20260506151015 | 56 | 84 | 2.0 | 6.0 | 0.00 | 0.00 | 0.00 | 80 | 1021.9 |
| 20260506150516 | 56 | 101 | 2.0 | 6.0 | 0.00 | 0.00 | 0.00 | 80 | 1022.0 |
| 20260506150032 | 56 | 86 | 3.0 | 6.0 | 0.00 | 0.00 | 0.00 | 80 | 1021.9 |
| 20260506145504 | 56 | 99 | 1.0 | 4.0 | 0.00 | 0.00 | 0.00 | 80 | 1021.9 |
| 20260506145005 | 56 | 55 | 0.0 | 4.0 | 0.00 | 0.00 | 0.00 | 80 | 1021.6 |
| 20260506144506 | 56 | 46 | 1.0 | 6.0 | 0.00 | 0.00 | 0.00 | 80 | 1021.8 |
| 20260506144009 | 57 | 57 | 2.0 | 6.0 | 0.00 | 0.00 | 0.00 | 80 | 1021.7 |
| 20260506143505 | 57 | 97 | 3.0 | 6.0 | 0.00 | 0.00 | 0.00 | 80 | 1021.5 |
| 20260506143030 | 57 | 75 | 1.0 | 3.0 | 0.00 | 0.00 | 0.00 | 81 | 1021.4 |
| 20260506142503 | 57 | 96 | 2.0 | 3.0 | 0.00 | 0.00 | 0.00 | 81 | 1021.2 |